25.05.2024;07:00;6
25.05.2024;06:00;5
25.05.2024;05:00;6
25.05.2024;04:00;7
25.05.2024;03:00;8
25.05.2024;02:00;9
25.05.2024;01:00;7
24.05.2024;24:00;7
24.05.2024;23:00;9
24.05.2024;22:00;9
24.05.2024;21:00;7
24.05.2024;20:00;6
24.05.2024;19:00;6
24.05.2024;18:00;6
24.05.2024;17:00;5
24.05.2024;16:00;5
24.05.2024;15:00;5
24.05.2024;14:00;5
24.05.2024;13:00;5
24.05.2024;12:00;5
24.05.2024;11:00;8
24.05.2024;10:00;10
24.05.2024;09:00;11
24.05.2024;08:00;12
24.05.2024;07:00;14
24.05.2024;06:00;15
24.05.2024;05:00;16
24.05.2024;04:00;13
24.05.2024;03:00;12
24.05.2024;02:00;10
24.05.2024;01:00;9
23.05.2024;24:00;5
23.05.2024;23:00;5
23.05.2024;22:00;4
23.05.2024;21:00;4
23.05.2024;20:00;6
23.05.2024;19:00;9
23.05.2024;18:00;11
23.05.2024;17:00;11
23.05.2024;16:00;12
23.05.2024;15:00;14
23.05.2024;14:00;16
23.05.2024;13:00;16
23.05.2024;12:00;15
23.05.2024;11:00;14
23.05.2024;10:00;11
23.05.2024;09:00;12
23.05.2024;08:00;13
23.05.2024;07:00;13
23.05.2024;06:00;13
23.05.2024;05:00;9
23.05.2024;04:00;8
23.05.2024;03:00;8
23.05.2024;02:00;7
23.05.2024;01:00;7
22.05.2024;24:00;8
22.05.2024;23:00;10
22.05.2024;22:00;6
22.05.2024;21:00;9
22.05.2024;20:00;9
22.05.2024;19:00;9
22.05.2024;18:00;9
22.05.2024;17:00;8
22.05.2024;16:00;8
22.05.2024;15:00;8
22.05.2024;14:00;7
22.05.2024;13:00;6
22.05.2024;12:00;6
22.05.2024;11:00;5
22.05.2024;10:00;5
22.05.2024;09:00;6
22.05.2024;08:00;10
22.05.2024;07:00;13
22.05.2024;06:00;13
22.05.2024;05:00;13
22.05.2024;04:00;13
22.05.2024;03:00;13
22.05.2024;02:00;12
22.05.2024;01:00;8
21.05.2024;24:00;6
21.05.2024;23:00;5
21.05.2024;22:00;5
21.05.2024;21:00;4
21.05.2024;20:00;4
21.05.2024;19:00;5
21.05.2024;18:00;5
21.05.2024;17:00;7
21.05.2024;16:00;16
21.05.2024;15:00;26
21.05.2024;14:00;23
21.05.2024;13:00;25
21.05.2024;12:00;26
21.05.2024;11:00;21
21.05.2024;10:00;18
21.05.2024;09:00;18
21.05.2024;08:00;15
21.05.2024;07:00;11
21.05.2024;06:00;11
21.05.2024;05:00;11
21.05.2024;04:00;10
21.05.2024;03:00;9
21.05.2024;02:00;7
21.05.2024;01:00;6
20.05.2024;24:00;8
20.05.2024;23:00;10
20.05.2024;22:00;9
20.05.2024;21:00;9
20.05.2024;20:00;8
20.05.2024;19:00;8
20.05.2024;18:00;8
20.05.2024;17:00;8
20.05.2024;16:00;9
20.05.2024;15:00;9
20.05.2024;14:00;9
20.05.2024;13:00;10
20.05.2024;12:00;10
20.05.2024;11:00;8
20.05.2024;10:00;6
20.05.2024;09:00;9
20.05.2024;08:00;11
20.05.2024;07:00;10
20.05.2024;06:00;9
20.05.2024;05:00;9
20.05.2024;04:00;10
20.05.2024;03:00;9
20.05.2024;02:00;10
20.05.2024;01:00;8
